Regional Weather Roundup
Issued by NWS

Home | Current Version | Previous Version | Graphics & Text | Print | Product List | Glossary Off
Versions: 1 2 3 4 5 6 7 8 9 10 11 12 13 14 15 16 17 18 19 20 21 22 23 24 25 26 27 28 29 30 31 32 33 34 35 36 37 38 39 40 41 42 43 44 45 46 47 48 49 50

000
ASUS43 KDMX 271106
RWRIA

WEATHER ROUNDUP FOR IOWA
NATIONAL WEATHER SERVICE DES MOINES IA
600 AM CDT MON MAR 27 2017

NOTE: "FAIR" INDICATES FEW OR NO CLOUDS BELOW 12,000 FEET WITH NO
SIGNIFICANT WEATHER AND/OR OBSTRUCTIONS TO VISIBILITY.

* - THESE STATIONS ARE NOT NWS STATIONS...THUS NOT UNDER NWS
QUALITY CONTROL.  THEY ALSO DO NOT REPORT WEATHER SUCH
AS PRECIPITATION OR FOG.

IAZ001>003-012>014-020>022-031>034-043>046-271200-
   NORTHWEST IOWA

CITY           SKY/WX    TMP DP  RH WIND       PRES   REMARKS
CARROLL *      CLOUDY    41  41 100 N8        29.94F
CHEROKEE *     CLOUDY    40  40  98 CALM      29.96R
LE MARS *      CLOUDY    41  41 100 CALM      29.97R
ORANGE CITY *  CLOUDY    39  39 100 CALM      29.95S
SHELDON *      CLOUDY    37  37 100 NE5       29.94S FOG     WCI  34
SIOUX CITY     CLOUDY    42  40  92 N5        29.96R
SPENCER        CLOUDY    39  38  96 NW3       29.96R
STORM LAKE *   CLOUDY    39  39 100 N5        29.95S
$$

IAZ055>058-069>071-079>083-090>094-271200-
   SOUTHWEST IOWA

CITY           SKY/WX    TMP DP  RH WIND       PRES   REMARKS
ATLANTIC *     CLOUDY    43  41  93 N9        29.94S
AUDUBON *      CLOUDY    39  37  93 N7        29.95S FOG     WCI  34
CLARINDA *     CLOUDY    45  45 100 N8        29.94R
COUNCIL BLFS * CLOUDY    45  45 100 N9        29.93S
CRESTON *      CLOUDY    43  43 100 N9        29.92S
HARLAN  *      CLOUDY    43  43 100 NE7       29.97F
LAMONI         LGT RAIN  44  43  96 N8        29.89F
RED OAK *      CLOUDY    45  43  93 N8        29.92F
SHENANDOAH *   CLOUDY    45  43  93 N7        29.93R
$$

IAZ047>049-059>061-072>074-084-271200-
   CENTRAL IOWA

CITY           SKY/WX    TMP DP  RH WIND       PRES   REMARKS
AMES           CLOUDY    42  41  96 N10       29.94R
ANKENY *       CLOUDY    43  41  93 N7        29.95R
BOONE *        CLOUDY    39  39 100 N12       29.93R WCI  32
CHARITON *     LGT RAIN  43  43 100 N7        29.90S
DES MOINES     CLOUDY    44  41  89 N8        29.93S
GRINNELL*      LGT RAIN  43  42  97 N6        29.94R
MARSHALLTOWN   FOG       42  42 100 N9        29.92R VSB 3/4
NEWTON *       CLOUDY    43  43 100 N8        29.92R FOG
PELLA *        FOG       44  43  98 N3        29.93S VSB 1/2
PERRY *        CLOUDY    41  40  96 N6        29.94R
$$

IAZ004>006-015-016-023>025-035-036-271200-
   NORTH CENTRAL IOWA

CITY           SKY/WX    TMP DP  RH WIND       PRES   REMARKS
ALGONA *       CLOUDY    39  39 100 N7        29.95R WCI  34
CLARION *      CLOUDY    39  39 100 N8        29.95R WCI  34
ESTHERVILLE    CLOUDY    37  37 100 NW5       29.95R WCI  33
FORT DODGE *   CLOUDY    39  36  87 CALM      29.96R
MASON CITY     CLOUDY    39  37  92 NW10      29.95S FOG     WCI  32
FOREST CITY *  CLOUDY    37  37 100 N8        29.94S FOG     WCI  31
WEBSTER CITY * CLOUDY    41  39  93 N7        29.93R
IOWA FALLS *   CLOUDY    41  40  97 NW7       29.94S FOG
$$

IAZ007>011-017>019-026>030-037>042-050>054-066-271200-
   NORTHEAST IOWA

CITY           SKY/WX    TMP DP  RH WIND       PRES   REMARKS
CEDAR RAPIDS   FOG       43  43 100 NW6       29.91R VSB 1/2
CHARLES CITY * CLOUDY    41  41 100 NW5       29.94S FOG
CLINTON *      CLOUDY    46  45  96 NW5       29.92R FOG
DECORAH *      CLOUDY    39  39 100 CALM      29.91R FOG
DUBUQUE        CLOUDY    42  41  96 NW3       29.91R FOG
MONTICELLO *   FOG       45  45 100 N5        29.92R VSB<1/4
OELWEIN *      CLOUDY    41  41 100 N5        29.93R
WATERLOO       CLOUDY    41  40  96 NW5       29.93R FOG
$$

IAZ064-065-067-068-078-271200-
   EAST CENTRAL IOWA

CITY           SKY/WX    TMP DP  RH WIND       PRES   REMARKS
DAVENPORT      CLOUDY    46  45  96 NW5       29.91R FOG
IOWA CITY      CLOUDY    47  43  86 N6        29.93R
MUSCATINE *    CLOUDY    46  46 100 CALM      29.92R FOG
QUAD CITIES    CLOUDY    48  45  89 CALM      29.90R FOG
$$

IAZ062-063-075>077-085>089-095>099-271200-
   SOUTHEAST IOWA

CITY           SKY/WX    TMP DP  RH WIND       PRES   REMARKS
BURLINGTON     CLOUDY    47  47 100 N3        29.90R FOG
FAIRFIELD *    CLOUDY    45  45 100 N5        29.90S FOG
FORT MADISON * CLOUDY    46  46 100 NE3       29.91R FOG
KEOKUK *       CLOUDY    46  45  93 E3        29.90R
OSKALOOSA *    FOG       44  43  99 N6        29.91S VSB 3/4
OTTUMWA        CLOUDY    45  45 100 N8        29.91R FOG
WASHINGTON *   CLOUDY    46  45  93 NW5       29.92R
$$

ABBREVIATIONS USED IN REMARKS
   TC - TEMPERATURES IN CELSIUS
  WCI - WIND CHILL INDEX
   HX - HEAT INDEX
  VSB - VISIBILITY
$$




USA.gov is the U.S. government's official web portal to all federal, state and local government web resources and services.